Weather in Voskresenskoye

Russia / Vologda Oblast     59°25′54″N   37°55′25″E
temp.,
°C
wind,
m/s
gust,
m/s
humid.,
%
clouds,
%
prec.,
mm/h
press.,
hPa
HPBL,
m
24 january, mon
mon2400:00−13sw31296100 0.0 1032251
03:00−14ssw3119523 0.0 1032221
06:00−12ssw413938 0.0 1031272
09:00−12sw4139242 0.0 1031282
12:00−9ssw514915 0.0 1030346
15:00−8ssw5148975 0.0 1028449
18:00−8ssw5159071 0.0 1027425
21:00−8ssw5159069 0.0 1025424
25 january, tue
tue2500:00−9ssw5168897 0.0 1023459
03:00−8ssw51688100 0.0 1020501
06:00−8ssw51594100 0.4 1018530
09:00−7ssw51393100 0.9 1015527
12:00−7ssw41194100 0.4 1013493
15:00−6ssw4995100 1.7 1012460
18:00−6ssw3896100 1.1 1011348
21:00−7ssw2597100 1.4 1011148
26 january, wed
wed2600:00−7w169799 0.3 1011142
03:00−5nnw51193100 0.9 1013526
06:00−11nnw412905 0.1 1015287
09:00−16nnw289733 0.1 1017143
12:00−12nnw27935 0.0 1018187
15:00−11nw119614 0.0 101810
18:00−18w1110062 0.0 10199
21:00−20w1110075 0.0 10189
27 january, thu
thu2700:00−21wsw1110093 0.0 10189
03:00−22ssw21100100 0.0 101714
06:00−21ssw23100100 0.0 101646
09:00−17s269997 0.0 1015108
12:00−12s399398 0.0 1014208
15:00−11sse3119157 0.0 1012297
18:00−13sse4139097 0.0 1011287
21:00−11sse41589100 0.0 1009431
28 january, fri
fri2800:00−11sse4138780 0.0 1007432
03:00−12sse4129399 0.1 1006437
06:00−12sse41194100 0.3 1005400
09:00−12sse41094100 0.4 1004372
12:00−10se4993100 0.1 1004397
15:00−9se3894100 0.4 1003405
18:00−9se3995100 0.3 1004374
21:00−10ese3895100 0.6 1004328